Weather in Nevers

France     46°59′42″N   3°10′06″E
temp.,
°C
wind,
m/s
gust,
m/s
humid.,
%
clouds,
%
prec.,
mm/h
press.,
hPa
HPBL,
m
28 february, sun
sun2801:00+2nne310910 0.0 1032321
04:00+1ne38920 0.0 1031223
07:000ne24940 0.0 1031110
10:00+5e24750 0.0 1030421
13:00+9ese23630 0.0 1029708
16:00+12ese23600 0.0 1028758
19:00+6ene12860 0.0 102822
22:00+4ese22930 0.0 102938
1 march, mon
mon101:00+4e22940 0.0 102941
04:00+3ese23940 0.0 102851
07:00+2ese23950 0.0 102951
10:00+8se35800 0.0 1028254
13:00+14se24610 0.0 1027452
16:00+16ese35570 0.0 1025697
19:00+9ene34840 0.0 102656
22:00+7ese39900 0.0 1027182
2 march, tue
tue201:00+6se36910 0.0 1028143
04:00+4se35890 0.0 1027108
07:00+3se23862 0.0 102865
10:00+8se35710 0.0 1029205
13:00+14se35540 0.0 1028531
16:00+15se35520 0.0 1027787
19:00+10ese126719 0.0 102823
22:00+8se2274100 0.0 102926
3 march, wed
wed301:00+6se118364 0.0 103022
04:00+5sse12904 0.0 103022
07:00+4se22932 0.0 103022
10:00+9se237256 0.0 1029207
13:00+15ese115562 0.0 1028556
16:00+15wnw005220 0.0 1026951
19:00+11nne237940 0.0 102552
22:00+10ese248498 0.2 102592
4 march, thu
thu401:00+9ese119199 1.4 102440
04:00+6sse119566 0.4 102222
07:00+6sse119463 0.5 102124
10:00+9wsw238953 0.2 1021262
13:00+12wnw457652 0.8 1019941
16:00+13wnw466814 0.3 10181147
19:00+7wnw36918 0.3 1018157
22:00+5nw12950 0.0 101922